Location: ?????
(30.4569°N, 47.8921°E)
Time: 20:25:17
(UTC+00:00)

Cosmos 1933 - Pass Details

Date: 07 June 2020
Orbit: 546 x 564 km, 82.5° (Epoch: 05 July)

Event Time Altitude Azimuth Distance (km) Brightness Sun altitude
Rises 00:53:57 0° 342° (NNW) 2,726 7.1 -10.4°
Reaches altitude 10° 00:56:16 10° 333° (NNW) 1,826 6.1 -10.0°
Maximum altitude 00:59:53 33° 269° (W) 929 4.0 -9.4°
Drops below altitude 10° 01:03:29 10° 204° (SSW) 1,809 5.5 -8.7°
Enters shadow 01:04:37 - 198° (SSW) 2,243 6.0 -8.5°
